STARLINK-35726 (66280 NORAD) Tracking and Keplerian Element Data

This shows tracking and keplerian element data for the satellite.

Feedback or suggestion? Click here.




ElementValue
Catalog66280
NameSTARLINK-35726
Epoch Orbit578
Epoch Day354.00002315
Epoch Year2025
RAAN203.1754
Inclination53.157
Eccentricity0.0001365
Argument of Perigee81.5217
Mean Anonmoly165.4467
Mean Motion15.39595092
Decay Rate0.00061655
L11 66280U 25247R 25354.00002315 .00061655 00000+0 15402-2 0 9998
L22 66280 53.1570 203.1754 0001365 81.5217 165.4467 15.39595092 5787



Live tracking and technical data element details for STARLINK-35726 (NORAD 66280). STARLINK-35726 can be tracked NOW for your location showing map with azimuth and elevation plus other details from your city location.







IsCatalogInMostPopularTable: catalog: 66280, numindb: 3
Update: records affected: 1



GetName: 66280 STARLINK-35726

Hit Count: updated at: Sun, 08 Feb 2026 07:07:54 GMT